| time (UTC) | temp F | wind direction | speed knots | gust knots | rain 1hr in | rain 24hr in | rain mn in | humidity % | barometer mb |
| 20260505084605 | 63 | 114 | 0.0 | 1.7 | 0.00 | 0.01 | 0.01 | 68 | 1020.4 |
| 20260505084104 | 63 | 114 | 0.9 | 1.7 | 0.00 | 0.01 | 0.01 | 67 | 1020.3 |
| 20260505083604 | 64 | 114 | 0.0 | 0.9 | 0.00 | 0.01 | 0.01 | 67 | 1020.4 |
| 20260505082604 | 64 | 114 | 0.0 | 2.6 | 0.00 | 0.01 | 0.01 | 65 | 1020.2 |
| 20260505081607 | 65 | 114 | 1.7 | 2.6 | 0.00 | 0.01 | 0.01 | 64 | 1020.0 |
| 20260505081105 | 65 | 114 | 1.7 | 2.6 | 0.00 | 0.01 | 0.01 | 63 | 1019.9 |
| 20260505080605 | 65 | 114 | 1.7 | 2.6 | 0.00 | 0.01 | 0.01 | 63 | 1019.9 |
| 20260505080105 | 66 | 114 | 1.7 | 5.2 | 0.00 | 0.01 | 0.01 | 62 | 1019.8 |
| 20260505075103 | 66 | 127 | 3.5 | 6.1 | 0.00 | 0.01 | 0.01 | 61 | 1019.6 |
| 20260505074604 | 66 | 138 | 4.3 | 7.0 | 0.00 | 0.01 | 0.01 | 61 | 1019.5 |
| 20260505074104 | 67 | 125 | 2.6 | 6.1 | 0.00 | 0.01 | 0.01 | 61 | 1019.3 |
| 20260505073604 | 67 | 130 | 5.2 | 10.4 | 0.00 | 0.01 | 0.01 | 61 | 1019.2 |
| 20260505072604 | 68 | 106 | 2.6 | 7.0 | 0.00 | 0.01 | 0.01 | 59 | 1019.0 |
| 20260505072104 | 68 | 231 | 1.7 | 2.6 | 0.00 | 0.01 | 0.01 | 58 | 1018.9 |
| 20260505071604 | 69 | 101 | 1.7 | 2.6 | 0.00 | 0.01 | 0.01 | 56 | 1018.8 |
| 20260505071104 | 70 | 119 | 1.7 | 5.2 | 0.00 | 0.01 | 0.01 | 54 | 1018.8 |
| 20260505070604 | 70 | 229 | 1.7 | 2.6 | 0.00 | 0.01 | 0.01 | 46 | 1018.7 |
| 20260505070104 | 71 | 261 | 0.9 | 2.6 | 0.00 | 0.01 | 0.01 | 46 | 1018.5 |
| 20260505065604 | 71 | 261 | 0.9 | 2.6 | 0.00 | 0.01 | 0.01 | 46 | 1018.6 |
| 20260505065104 | 71 | 277 | 2.6 | 7.0 | 0.00 | 0.01 | 0.01 | 46 | 1018.3 |
| 20260505064604 | 71 | 260 | 1.7 | 2.6 | 0.00 | 0.01 | 0.01 | 46 | 1018.3 |
| 20260505064104 | 72 | 280 | 2.6 | 4.3 | 0.00 | 0.01 | 0.01 | 45 | 1018.3 |
| 20260505063104 | 72 | 271 | 5.2 | 7.8 | 0.00 | 0.01 | 0.01 | 44 | 1018.2 |
| 20260505062604 | 72 | 274 | 5.2 | 8.7 | 0.00 | 0.01 | 0.01 | 44 | 1018.2 |
| 20260505062104 | 73 | 292 | 4.3 | 7.8 | 0.00 | 0.01 | 0.01 | 44 | 1018.1 |
| 20260505061604 | 73 | 275 | 0.9 | 2.6 | 0.00 | 0.01 | 0.01 | 44 | 1018.1 |
| 20260505061104 | 73 | 236 | 3.5 | 4.3 | 0.00 | 0.01 | 0.01 | 44 | 1018.1 |
| 20260505060604 | 73 | 292 | 0.9 | 4.3 | 0.00 | 0.01 | 0.01 | 44 | 1018.0 |
| 20260505055604 | 73 | 284 | 2.6 | 8.7 | 0.00 | 0.01 | 0.01 | 43 | 1017.9 |
| 20260505055104 | 73 | 291 | 4.3 | 8.7 | 0.00 | 0.01 | 0.01 | 44 | 1018.0 |
| 20260505054604 | 73 | 310 | 1.7 | 10.4 | 0.00 | 0.01 | 0.01 | 43 | 1018.0 |
| 20260505054103 | 73 | 299 | 4.3 | 8.7 | 0.00 | 0.01 | 0.01 | 44 | 1018.0 |
| 20260505053604 | 73 | 286 | 4.3 | 7.8 | 0.00 | 0.01 | 0.01 | 43 | 1018.0 |
| 20260505053104 | 73 | 276 | 4.3 | 8.7 | 0.00 | 0.01 | 0.01 | 44 | 1018.0 |
| 20260505052604 | 73 | 285 | 4.3 | 8.7 | 0.00 | 0.01 | 0.01 | 45 | 1018.0 |
| 20260505052104 | 73 | 256 | 4.3 | 7.8 | 0.00 | 0.01 | 0.01 | 43 | 1017.9 |
| 20260505051104 | 74 | 242 | 4.3 | 10.4 | 0.00 | 0.01 | 0.01 | 43 | 1017.9 |
| 20260505050604 | 73 | 252 | 4.3 | 7.0 | 0.00 | 0.01 | 0.01 | 44 | 1017.8 |
| 20260505050104 | 73 | 353 | 1.7 | 7.8 | 0.00 | 0.01 | 0.01 | 44 | 1017.8 |
| 20260505041604 | 73 | 309 | 5.2 | 7.0 | 0.00 | 0.01 | 0.01 | 45 | 1017.3 |
| 20260505040603 | 73 | 253 | 6.1 | 10.4 | 0.00 | 0.01 | 0.01 | 46 | 1017.6 |
| 20260505035604 | 73 | 277 | 5.2 | 10.4 | 0.00 | 0.01 | 0.01 | 45 | 1017.6 |
| 20260505035104 | 73 | 267 | 4.3 | 8.7 | 0.00 | 0.01 | 0.01 | 46 | 1017.6 |
| 20260505034604 | 72 | 280 | 2.6 | 13.0 | 0.00 | 0.01 | 0.01 | 45 | 1017.4 |
| 20260505034104 | 72 | 270 | 4.3 | 13.9 | 0.00 | 0.01 | 0.01 | 47 | 1017.6 |
| 20260505033605 | 72 | 240 | 4.3 | 10.4 | 0.00 | 0.01 | 0.01 | 48 | 1017.7 |
| 20260505033104 | 72 | 249 | 2.6 | 7.0 | 0.00 | 0.01 | 0.01 | 47 | 1017.6 |
| 20260505032604 | 73 | 282 | 7.0 | 10.4 | 0.00 | 0.01 | 0.01 | 48 | 1017.6 |
| 20260505032104 | 74 | 313 | 2.6 | 6.1 | 0.00 | 0.01 | 0.01 | 50 | 1017.8 |
| 20260505031605 | 72 | 311 | 1.7 | 7.0 | 0.00 | 0.01 | 0.01 | 51 | 1017.7 |
| 20260505031105 | 71 | 286 | 1.7 | 4.3 | 0.00 | 0.01 | 0.01 | 52 | 1017.8 |
| 20260505030604 | 71 | 224 | 2.6 | 8.7 | 0.00 | 0.01 | 0.01 | 52 | 1017.9 |
| 20260505030104 | 72 | 268 | 3.5 | 8.7 | 0.00 | 0.01 | 0.01 | 50 | 1017.9 |
| 20260505025604 | 72 | 270 | 3.5 | 8.7 | 0.00 | 0.01 | 0.01 | 50 | 1018.0 |
| 20260505025104 | 71 | 287 | 7.0 | 11.3 | 0.00 | 0.01 | 0.01 | 50 | 1018.1 |
| 20260505024604 | 71 | 294 | 6.1 | 10.4 | 0.00 | 0.01 | 0.01 | 50 | 1018.2 |
| 20260505024103 | 71 | 254 | 6.1 | 10.4 | 0.00 | 0.01 | 0.01 | 51 | 1018.0 |
| 20260505023604 | 71 | 248 | 3.5 | 13.0 | 0.00 | 0.01 | 0.01 | 51 | 1018.0 |
| 20260505023104 | 71 | 286 | 7.8 | 11.3 | 0.00 | 0.01 | 0.01 | 50 | 1018.2 |
| 20260505022604 | 71 | 280 | 3.5 | 12.2 | 0.00 | 0.01 | 0.01 | 52 | 1018.1 |
| 20260505022103 | 70 | 290 | 4.3 | 12.2 | 0.00 | 0.01 | 0.01 | 52 | 1018.2 |
| 20260505021104 | 70 | 275 | 5.2 | 11.3 | 0.00 | 0.01 | 0.01 | 52 | 1018.2 |
| 20260505020604 | 71 | 285 | 6.1 | 14.8 | 0.00 | 0.01 | 0.01 | 52 | 1018.3 |
| 20260505020104 | 70 | 268 | 6.1 | 11.3 | 0.00 | 0.01 | 0.01 | 53 | 1018.5 |
| 20260505015604 | 70 | 273 | 6.1 | 13.9 | 0.00 | 0.02 | 0.01 | 52 | 1018.6 |
| 20260505014104 | 70 | 287 | 8.7 | 14.8 | 0.00 | 0.04 | 0.01 | 53 | 1018.7 |
| 20260505013604 | 70 | 290 | 7.8 | 10.4 | 0.00 | 0.06 | 0.01 | 54 | 1018.8 |
| 20260505012603 | 70 | 313 | 5.2 | 10.4 | 0.00 | 0.08 | 0.01 | 54 | 1018.9 |
| 20260505012104 | 69 | 292 | 4.3 | 10.4 | 0.00 | 0.09 | 0.01 | 55 | 1019.0 |
| 20260505011604 | 69 | 291 | 7.8 | 13.9 | 0.00 | 0.09 | 0.01 | 55 | 1019.1 |
| 20260505011105 | 69 | 300 | 6.1 | 13.0 | 0.00 | 0.10 | 0.01 | 56 | 1019.1 |
| 20260505010103 | 68 | 278 | 4.3 | 12.2 | 0.00 | 0.10 | 0.01 | 57 | 1019.3 |
| 20260505005604 | 68 | 297 | 10.4 | 14.8 | 0.00 | 0.11 | 0.01 | 56 | 1019.4 |
| 20260505005104 | 68 | 278 | 7.0 | 18.2 | 0.00 | 0.12 | 0.01 | 57 | 1019.3 |
| 20260505004604 | 68 | 280 | 7.8 | 13.0 | 0.00 | 0.13 | 0.01 | 58 | 1019.5 |
| 20260505004104 | 67 | 287 | 11.3 | 15.6 | 0.00 | 0.14 | 0.01 | 57 | 1019.5 |
| 20260505003603 | 68 | 301 | 9.6 | 17.4 | 0.00 | 0.16 | 0.01 | 58 | 1019.5 |
| 20260505002604 | 67 | 285 | 7.8 | 13.9 | 0.00 | 0.17 | 0.01 | 59 | 1019.6 |
| 20260505002104 | 67 | 274 | 8.7 | 17.4 | 0.00 | 0.17 | 0.01 | 59 | 1019.6 |
| 20260505001604 | 67 | 291 | 9.6 | 13.0 | 0.00 | 0.18 | 0.01 | 61 | 1019.6 |
| 20260505001103 | 67 | 288 | 4.3 | 8.7 | 0.00 | 0.18 | 0.01 | 64 | 1019.7 |
| 20260505000603 | 67 | 311 | 7.0 | 11.3 | 0.00 | 0.19 | 0.01 | 63 | 1019.7 |
| 20260505000104 | 66 | 288 | 2.6 | 12.2 | 0.00 | 0.19 | 0.01 | 64 | 1019.7 |
| 20260504235603 | 66 | 286 | 6.1 | 11.3 | 0.00 | 0.19 | 0.01 | 64 | 1019.7 |
| 20260504234604 | 66 | 299 | 6.1 | 11.3 | 0.00 | 0.20 | 0.01 | 66 | 1019.8 |
| 20260504234104 | 65 | 318 | 6.1 | 10.4 | 0.00 | 0.20 | 0.01 | 65 | 1019.9 |
| 20260504233104 | 65 | 266 | 1.7 | 4.3 | 0.00 | 0.21 | 0.01 | 67 | 1020.0 |
| 20260504232604 | 65 | 289 | 2.6 | 6.1 | 0.00 | 0.22 | 0.01 | 67 | 1020.0 |
| 20260504232104 | 64 | 300 | 5.2 | 13.0 | 0.00 | 0.22 | 0.01 | 67 | 1020.0 |
| 20260504231604 | 64 | 301 | 6.1 | 11.3 | 0.00 | 0.22 | 0.01 | 67 | 1020.0 |
| 20260504231104 | 63 | 301 | 8.7 | 15.6 | 0.00 | 0.22 | 0.01 | 67 | 1019.8 |
| 20260504230604 | 63 | 286 | 5.2 | 10.4 | 0.00 | 0.22 | 0.01 | 67 | 1019.8 |
| 20260504225604 | 63 | 308 | 3.5 | 8.7 | 0.00 | 0.22 | 0.01 | 69 | 1019.8 |
| 20260504224104 | 62 | 320 | 4.3 | 8.7 | 0.00 | 0.22 | 0.01 | 73 | 1019.6 |
| 20260504223604 | 61 | 312 | 4.3 | 8.7 | 0.00 | 0.22 | 0.01 | 74 | 1019.6 |
| 20260504223104 | 61 | 335 | 6.1 | 8.7 | 0.00 | 0.22 | 0.01 | 76 | 1019.7 |
| 20260504222605 | 60 | 320 | 4.3 | 8.7 | 0.00 | 0.22 | 0.01 | 78 | 1019.9 |
| 20260504222104 | 60 | 321 | 4.3 | 7.8 | 0.00 | 0.22 | 0.01 | 80 | 1019.8 |
| 20260504221604 | 59 | 327 | 6.1 | 8.7 | 0.00 | 0.22 | 0.01 | 81 | 1019.7 |
| 20260504221104 | 59 | 327 | 6.1 | 10.4 | 0.00 | 0.22 | 0.01 | 82 | 1019.8 |
| 20260504220104 | 58 | 314 | 4.3 | 7.8 | 0.00 | 0.22 | 0.01 | 85 | 1019.9 |
| 20260504215104 | 57 | 285 | 3.5 | 5.2 | 0.01 | 0.22 | 0.01 | 89 | 1019.8 |
| 20260504214605 | 56 | 290 | 2.6 | 2.6 | 0.01 | 0.22 | 0.01 | 90 | 1019.7 |
| 20260504214104 | 56 | 284 | 1.7 | 2.6 | 0.01 | 0.22 | 0.01 | 92 | 1019.6 |
| 20260504213104 | 55 | 297 | 1.7 | 2.6 | 0.01 | 0.22 | 0.01 | 92 | 1019.3 |
| 20260504212603 | 55 | 336 | 0.9 | 2.6 | 0.01 | 0.22 | 0.01 | 92 | 1019.2 |
| 20260504212104 | 54 | 336 | 0.9 | 1.7 | 0.01 | 0.22 | 0.01 | 92 | 1019.3 |
| 20260504211604 | 54 | 336 | 0.9 | 2.6 | 0.01 | 0.22 | 0.01 | 92 | 1019.2 |
| 20260504211104 | 54 | 15 | 1.7 | 2.6 | 0.01 | 0.22 | 0.01 | 92 | 1019.2 |
| 20260504210605 | 53 | 66 | 0.0 | 0.9 | 0.01 | 0.22 | 0.01 | 92 | 1019.1 |
| 20260504210105 | 53 | 66 | 0.9 | 1.7 | 0.01 | 0.22 | 0.01 | 92 | 1019.0 |
| 20260504205605 | 53 | 43 | 0.0 | 1.7 | 0.00 | 0.21 | 0.00 | 91 | 1018.8 |
| 20260504204604 | 53 | 46 | 0.9 | 1.7 | 0.00 | 0.21 | 0.00 | 90 | 1018.6 |
| 20260504204104 | 53 | 55 | 0.9 | 1.7 | 0.00 | 0.21 | 0.00 | 90 | 1018.5 |
| 20260504203604 | 53 | 230 | 0.0 | 0.0 | 0.00 | 0.21 | 0.00 | 90 | 1018.4 |
| 20260504203104 | 53 | 230 | 0.0 | 0.9 | 0.00 | 0.21 | 0.00 | 90 | 1018.4 |
| 20260504201604 | 54 | 230 | 0.9 | 2.6 | 0.00 | 0.21 | 0.00 | 90 | 1018.4 |
| 20260504200604 | 54 | 230 | 0.9 | 1.7 | 0.00 | 0.21 | 0.00 | 90 | 1018.2 |
| 20260504200104 | 54 | 230 | 0.0 | 0.9 | 0.00 | 0.21 | 0.00 | 89 | 1018.1 |
| 20260504194604 | 54 | 230 | 0.9 | 1.7 | 0.00 | 0.21 | 0.00 | 89 | 1017.9 |
| 20260504193604 | 54 | 230 | 0.0 | 0.9 | 0.00 | 0.21 | 0.00 | 89 | 1017.9 |
| 20260504192604 | 55 | 230 | 0.0 | 0.0 | 0.00 | 0.21 | 0.00 | 89 | 1017.8 |
| 20260504192104 | 55 | 230 | 0.0 | 0.0 | 0.00 | 0.21 | 0.00 | 89 | 1017.8 |
| 20260504191104 | 55 | 230 | 0.0 | 0.9 | 0.00 | 0.21 | 0.00 | 89 | 1017.8 |
| 20260504190604 | 55 | 230 | 0.9 | 1.7 | 0.00 | 0.21 | 0.00 | 89 | 1017.8 |
| 20260504185604 | 55 | 230 | 0.0 | 0.0 | 0.00 | 0.21 | 0.00 | 89 | 1017.8 |
| 20260504184604 | 55 | 230 | 0.0 | 0.0 | 0.00 | 0.21 | 0.00 | 89 | 1017.6 |
| 20260504184104 | 55 | 230 | 0.0 | 1.7 | 0.00 | 0.21 | 0.00 | 89 | 1017.4 |
| 20260504183104 | 56 | 230 | 0.9 | 2.6 | 0.00 | 0.21 | 0.00 | 89 | 1017.2 |
| 20260504182604 | 56 | 230 | 0.9 | 1.7 | 0.00 | 0.21 | 0.00 | 89 | 1017.3 |
| 20260504182104 | 56 | 230 | 0.0 | 0.0 | 0.00 | 0.21 | 0.00 | 89 | 1017.2 |
| 20260504181104 | 56 | 230 | 0.0 | 1.7 | 0.00 | 0.21 | 0.00 | 88 | 1017.3 |
| 20260504180604 | 56 | 230 | 0.9 | 2.6 | 0.00 | 0.21 | 0.00 | 89 | 1017.3 |
| 20260504175604 | 57 | 230 | 1.7 | 2.6 | 0.00 | 0.21 | 0.00 | 88 | 1017.1 |
| 20260504175104 | 57 | 230 | 2.6 | 2.6 | 0.00 | 0.21 | 0.00 | 88 | 1017.1 |
| 20260504174604 | 57 | 307 | 1.7 | 2.6 | 0.00 | 0.21 | 0.00 | 88 | 1017.2 |
| 20260504174104 | 57 | 307 | 0.0 | 1.7 | 0.00 | 0.21 | 0.00 | 88 | 1017.1 |
| 20260504173605 | 58 | 307 | 0.0 | 0.9 | 0.00 | 0.21 | 0.00 | 88 | 1017.2 |
| 20260504173104 | 58 | 307 | 0.0 | 0.9 | 0.00 | 0.21 | 0.00 | 88 | 1017.1 |
| 20260504172604 | 58 | 307 | 0.0 | 0.9 | 0.00 | 0.21 | 0.00 | 88 | 1017.2 |
| 20260504172104 | 58 | 307 | 0.9 | 2.6 | 0.00 | 0.21 | 0.00 | 88 | 1017.2 |
| 20260504171604 | 58 | 307 | 0.9 | 1.7 | 0.00 | 0.21 | 0.00 | 89 | 1017.3 |
| 20260504170603 | 58 | 307 | 0.0 | 0.9 | 0.00 | 0.21 | 0.00 | 89 | 1017.3 |
| 20260504170104 | 58 | 307 | 0.0 | 0.0 | 0.00 | 0.21 | 0.00 | 89 | 1017.3 |
| 20260504151104 | 62 | 268 | 1.7 | 4.3 | 0.00 | 0.21 | 0.00 | 92 | 1017.0 |
| 20260504150604 | 62 | 257 | 2.6 | 4.3 | 0.00 | 0.21 | 0.00 | 92 | 1017.0 |
| 20260504141104 | 63 | 272 | 0.9 | 1.7 | 0.00 | 0.21 | 0.00 | 93 | 1017.0 |
| 20260504140604 | 63 | 272 | 1.7 | 6.1 | 0.00 | 0.21 | 0.00 | 93 | 1017.1 |
| 20260504140104 | 63 | 281 | 2.6 | 4.3 | 0.00 | 0.21 | 0.00 | 93 | 1017.1 |
| 20260504130604 | 63 | 259 | 3.5 | 7.0 | 0.00 | 0.21 | 0.21 | 93 | 1017.2 |
| 20260504130104 | 63 | 284 | 3.5 | 6.1 | 0.00 | 0.21 | 0.21 | 93 | 1017.2 |
| 20260504120104 | 62 | 270 | 2.6 | 4.3 | 0.00 | 0.21 | 0.21 | 92 | 1017.2 |
| 20260504110604 | 63 | 243 | 5.2 | 7.8 | 0.00 | 0.21 | 0.21 | 91 | 1016.7 |
| 20260504100604 | 65 | 245 | 0.9 | 1.7 | 0.00 | 0.21 | 0.21 | 89 | 1015.9 |
| 20260504100105 | 65 | 245 | 0.0 | 1.7 | 0.00 | 0.21 | 0.21 | 89 | 1015.9 |
| 20260504090104 | 68 | 336 | 1.7 | 2.6 | 0.00 | 0.21 | 0.21 | 81 | 1015.9 |